Theta_e
346 346 347 346 346 347 348 346 346 346 347 348 348 348 348 349 349 348 347 347 347 346 346 346 347 347 346 347 347 346 345 345 346 345 343 337 329 329 330 330 331 331 333 332 331 331 331 332 332 331 333 334 334 335 335 335 336 337 337 338 338 339 340 340 341 342 343 346 348 349 350 351 350 350 348 347 347 347 349 350 350 349 347 345 343
344 345 345 345 345 346 346 345 345 346 348 349 349 349 349 349 349 348 347 347 346 346 347 346 346 346 345 345 345 345 344 344 346 346 348 343 330 326 329 329 330 329 329 328 327 327 328 329 329 331 333 334 334 335 335 336 336 337 337 338 338 339 340 341 343 343 345 349 350 350 351 349 347 346 346 347 348 348 347 345 343 340 335 330 327
343 343 343 344 344 345 346 345 346 347 349 349 349 349 349 349 349 348 347 347 347 346 347 346 345 345 343 343 343 343 343 344 346 346 349 345 331 326 328 326 326 326 324 324 324 325 327 330 332 334 335 336 337 338 339 340 340 342 342 343 344 344 345 345 346 347 348 350 351 351 350 348 347 346 346 346 344 340 335 331 328 326 323 321 321
342 343 343 343 344 345 346 346 347 348 349 349 349 348 348 348 348 348 348 348 348 347 347 346 345 344 342 342 343 343 343 344 345 346 348 345 336 336 338 331 325 324 324 324 326 330 333 335 338 341 343 344 345 345 346 347 347 347 348 347 348 348 348 348 348 348 349 350 349 346 344 345 345 341 338 335 331 327 324 322 321 320 321 322 326
342 342 343 343 345 346 347 347 348 348 348 348 348 348 349 349 349 349 349 350 349 349 348 346 345 344 343 344 343 344 344 344 344 346 348 347 344 346 348 343 335 330 331 332 334 336 339 342 345 347 349 349 349 349 349 349 349 349 349 349 349 349 350 348 348 347 346 345 341 337 336 337 335 328 324 323 322 321 320 320 321 322 325 330 337
342 342 343 344 346 347 346 347 348 348 348 348 348 348 348 349 350 350 350 351 350 349 348 346 345 344 343 344 344 344 345 345 345 346 348 349 348 348 349 349 344 339 339 341 341 341 343 345 347 348 349 348 348 349 348 348 348 348 348 348 348 348 348 346 345 344 342 339 336 335 335 334 331 326 325 327 328 327 326 327 330 331 334 339 345
345 343 344 346 347 346 347 347 348 348 348 348 347 347 348 349 350 351 351 351 350 349 347 346 345 344 344 344 344 344 345 346 345 345 348 348 348 348 349 349 349 347 345 345 346 345 345 346 347 348 347 347 347 346 345 344 344 345 345 344 344 343 343 342 341 340 339 338 338 338 339 339 337 334 335 336 337 337 337 338 339 339 341 345 348
347 345 344 346 346 346 346 347 349 350 349 348 347 347 350 352 352 352 351 350 349 349 348 346 344 344 343 343 344 344 345 346 345 345 347 348 348 348 348 348 349 350 350 349 349 348 348 347 347 348 348 346 344 341 339 339 339 339 341 340 340 340 340 340 340 341 341 341 342 342 342 342 341 339 339 339 339 340 341 342 342 343 345 346 347
347 346 344 346 347 346 346 349 350 350 349 348 348 350 353 354 353 352 352 350 349 349 347 346 344 343 342 343 344 343 343 345 345 345 346 347 347 346 347 349 349 349 351 351 350 350 351 349 349 350 351 346 339 337 336 336 338 338 339 341 342 343 343 344 344 345 345 345 345 345 346 345 344 343 341 340 340 341 343 344 345 345 345 346 346
347 347 346 347 348 347 347 349 350 350 350 351 351 352 353 353 353 353 353 352 350 348 347 346 346 344 341 342 343 342 341 343 343 343 344 345 344 344 347 349 349 348 349 349 350 351 351 350 351 352 354 347 337 336 337 337 339 340 342 345 346 347 348 348 348 348 348 349 349 348 348 348 348 348 346 345 344 344 345 346 346 347 347 347 347
346 347 347 348 348 348 348 349 350 351 352 352 351 352 353 354 354 353 353 351 349 348 347 347 346 344 342 341 342 341 341 342 342 341 343 344 342 343 346 347 347 348 348 347 348 350 350 350 350 351 354 351 339 336 340 342 342 344 346 347 349 349 349 349 349 349 350 350 351 350 350 350 350 350 350 350 349 348 348 348 348 348 348 348 347
345 346 348 348 349 349 350 351 352 353 353 353 352 352 354 354 353 353 351 349 348 347 347 347 345 343 343 341 340 341 341 340 339 341 343 344 343 343 345 346 347 347 347 347 347 348 350 348 349 351 353 354 347 341 341 342 343 345 346 348 349 349 349 349 348 348 349 350 350 351 351 351 351 351 351 352 351 351 351 350 350 350 350 350 349
346 346 348 350 351 351 352 353 353 352 352 353 353 354 354 353 353 352 350 348 347 346 347 347 345 342 342 341 339 340 341 341 339 341 342 343 343 343 344 346 347 348 346 346 346 345 347 347 348 350 351 353 353 348 344 345 345 345 346 346 347 347 348 348 348 348 349 349 350 350 351 351 351 352 352 352 352 352 352 352 351 352 352 352 352
347 348 350 352 351 351 352 353 353 352 352 353 353 353 353 353 352 351 349 349 348 346 345 345 343 341 340 340 341 340 340 341 341 340 341 342 343 343 343 345 346 347 347 346 346 344 344 346 348 350 350 350 352 350 348 349 350 350 349 348 346 346 347 347 348 349 349 350 350 350 350 352 352 352 352 352 352 352 352 352 352 352 352 352 352
348 350 352 352 350 351 353 353 353 352 351 352 352 353 353 353 351 350 351 351 349 346 346 347 345 341 341 343 346 347 346 344 341 342 342 343 343 343 343 345 346 347 347 347 346 345 343 344 346 349 349 348 348 349 349 351 352 353 353 352 351 349 348 348 348 349 350 350 351 350 350 351 352 352 352 352 352 352 352 352 352 352 352 352 351
350 351 351 351 350 351 353 353 352 351 350 351 352 353 354 353 352 352 353 353 351 348 349 350 347 342 343 349 348 350 356 349 342 343 344 343 343 343 344 345 346 346 347 346 345 344 341 342 346 347 347 346 346 347 348 350 351 352 353 354 354 353 352 351 349 349 350 350 350 350 350 350 350 351 351 351 350 351 351 351 351 351 352 352 351
352 353 352 350 350 350 351 351 349 348 350 351 352 353 354 354 354 355 355 355 354 350 349 349 348 345 345 352 350 352 362 354 343 344 343 343 343 343 344 344 344 344 344 343 343 341 340 342 346 345 344 344 345 346 347 348 349 350 351 352 353 353 353 352 351 350 349 350 351 350 350 349 348 348 348 347 346 346 347 347 348 350 351 352 352
352 354 352 350 348 348 349 348 346 347 350 351 352 352 353 354 354 356 355 355 354 351 349 348 350 350 346 350 349 351 359 352 346 349 344 341 342 343 344 343 343 343 342 343 342 340 339 343 345 343 342 343 345 346 345 346 347 348 348 348 350 350 350 350 351 351 350 350 351 350 351 351 348 347 347 346 344 343 343 344 346 348 351 352 353
352 354 352 348 347 348 347 345 345 348 351 352 352 352 353 354 353 355 355 355 354 351 351 349 349 351 348 349 348 347 350 347 349 354 349 344 341 342 345 343 343 343 341 342 343 342 340 342 343 341 342 344 345 345 344 344 345 345 346 347 347 347 349 350 350 351 351 351 351 351 352 352 350 347 347 348 344 340 341 343 345 348 350 352 352
352 353 352 349 349 349 346 344 348 351 353 353 352 352 353 353 353 355 356 354 354 352 351 350 349 350 349 348 348 347 347 346 346 350 355 354 344 341 345 342 343 344 342 342 342 343 341 341 342 341 342 343 344 344 343 343 344 345 346 346 344 344 348 351 350 350 350 350 351 352 353 353 351 349 348 349 345 339 338 340 343 346 348 350 351
353 353 351 349 350 349 344 346 351 352 352 353 352 353 353 353 353 355 355 354 354 352 352 352 350 351 351 348 348 347 346 347 345 343 352 356 349 344 343 341 343 343 343 342 342 342 342 341 342 340 341 342 343 343 343 343 345 345 346 345 343 342 345 348 348 348 348 349 350 351 352 353 353 350 348 348 346 340 336 337 339 341 344 346 348
354 353 351 350 351 348 345 348 351 351 352 353 352 354 355 354 354 354 355 354 353 353 353 352 351 351 352 350 349 348 347 347 347 345 345 348 349 345 341 341 344 343 342 342 341 342 341 341 342 341 341 342 342 343 343 343 345 346 345 344 344 344 345 346 346 347 348 349 349 349 352 352 353 351 349 349 347 341 336 335 335 336 338 340 342
354 353 352 352 352 350 349 351 352 351 352 353 353 354 355 356 355 354 355 354 352 352 353 352 352 352 352 351 349 348 348 346 345 346 345 346 350 348 344 343 343 342 343 343 341 342 341 341 341 341 341 341 343 343 343 345 345 346 345 345 345 345 346 346 347 347 348 349 349 349 350 351 352 351 349 349 347 341 335 334 334 335 335 336 337
354 354 353 354 354 352 352 353 353 351 351 354 354 353 354 356 354 353 356 354 350 352 352 351 352 352 351 350 349 347 349 348 345 345 345 346 351 350 349 349 347 346 345 345 345 343 343 342 341 341 341 341 343 344 344 346 346 346 347 347 347 347 347 347 348 348 349 349 349 349 349 350 350 350 349 349 346 342 337 335 336 336 337 337 337
354 354 354 354 354 352 352 354 354 352 351 353 354 353 354 356 354 353 354 352 350 351 352 351 352 351 350 349 348 348 348 348 345 345 347 348 349 350 350 351 351 350 349 348 347 346 345 345 343 342 341 341 342 344 346 346 347 347 347 347 347 348 348 348 348 349 349 350 350 349 350 350 349 350 349 349 346 342 339 339 339 340 341 341 341
354 355 355 354 353 352 353 354 354 353 353 353 354 354 354 355 355 354 353 352 350 351 352 353 353 352 351 349 347 347 348 349 348 348 349 349 348 348 350 351 351 350 349 349 349 350 351 349 348 345 344 343 344 347 349 348 348 347 347 347 348 348 349 348 348 349 349 350 349 348 348 347 347 348 348 347 346 343 341 341 341 342 342 343 344
353 354 354 355 354 353 354 354 353 353 353 353 354 356 355 355 357 356 355 354 352 352 353 355 355 353 350 347 345 347 347 347 348 350 350 350 350 350 349 354 358 354 352 351 348 350 353 349 349 350 348 349 350 350 351 351 350 348 348 349 350 350 350 348 348 350 350 348 347 345 344 345 345 345 346 345 345 344 343 343 343 343 343 344 345
353 353 352 353 355 355 355 354 354 354 354 353 354 355 356 357 356 356 356 356 354 352 353 355 354 352 351 348 346 347 347 345 346 349 348 347 349 350 349 353 359 359 362 366 358 350 351 349 348 350 349 349 352 352 352 352 352 351 350 351 351 350 350 349 350 351 350 349 347 345 345 346 345 345 345 345 345 346 345 345 344 344 344 344 345
353 352 351 352 354 355 355 354 354 354 355 356 355 355 356 357 356 356 356 357 355 354 354 355 354 353 353 352 350 349 348 347 347 347 345 344 347 349 348 350 353 356 365 373 367 353 349 350 349 350 350 350 351 353 354 354 354 352 352 351 351 350 350 350 351 351 349 349 348 347 347 347 345 345 346 346 346 347 347 348 348 348 348 348 347
353 352 352 352 354 354 354 354 354 355 356 356 356 356 356 356 356 356 357 357 356 356 355 354 353 354 355 354 354 352 351 350 350 349 346 346 347 348 348 349 350 353 356 363 367 357 349 350 351 352 353 352 352 353 354 355 354 352 352 352 351 351 351 351 350 349 348 348 348 348 348 347 346 349 349 350 350 350 351 352 352 352 352 353 353
353 353 353 353 354 354 353 353 354 355 356 355 355 355 355 355 355 355 357 356 356 358 358 355 353 354 355 354 354 354 353 352 351 351 349 348 349 349 350 349 349 351 350 354 359 355 348 350 350 352 355 354 353 353 354 354 353 353 353 352 352 352 352 351 349 348 347 346 347 347 347 346 348 352 353 352 352 352 352 353 354 355 355 356 356
354 354 354 354 354 354 353 354 354 355 356 354 353 354 357 358 355 354 356 356 355 357 358 356 353 354 356 356 356 356 355 354 353 352 351 350 350 350 351 351 348 349 349 351 354 351 348 349 349 352 355 354 353 354 354 354 353 354 354 353 353 353 351 349 349 349 349 348 348 348 346 347 350 352 351 350 350 350 352 354 356 357 357 358 357
356 355 355 355 354 354 354 354 354 355 356 354 353 353 356 358 355 355 358 358 356 355 355 355 354 354 356 357 357 358 356 356 355 352 351 350 350 351 351 351 350 348 348 350 351 350 350 350 351 354 355 355 354 354 354 354 353 354 353 352 352 351 350 351 351 351 350 351 350 348 347 349 350 351 350 349 350 352 354 357 359 358 358 357 356
357 355 355 355 355 355 355 355 354 355 355 354 355 354 354 356 355 354 357 359 358 357 356 357 355 355 357 357 357 358 358 357 355 352 352 352 352 352 352 352 351 350 350 351 352 351 352 353 355 356 355 355 356 354 354 354 353 353 352 351 351 351 352 353 352 350 349 349 349 348 349 351 351 352 351 349 352 354 356 358 359 358 358 357 356
356 356 356 356 355 355 356 355 354 355 355 354 355 356 355 356 354 353 356 357 357 358 358 357 356 355 357 356 356 356 357 357 356 355 355 355 354 354 353 352 353 353 353 353 354 355 355 356 356 356 355 356 356 355 354 353 352 352 353 353 353 353 353 353 350 348 347 347 348 349 351 352 352 352 350 349 352 354 355 356 358 358 358 357 356
355 355 355 356 356 355 355 355 354 354 355 354 355 356 356 356 355 354 355 354 355 357 358 357 356 356 357 357 356 356 356 356 356 356 356 355 354 354 353 354 355 356 355 355 356 357 357 357 357 357 357 357 356 355 353 352 350 349 352 354 353 353 352 351 349 348 347 348 349 350 351 352 352 351 350 351 353 354 355 355 356 357 357 356 355
355 355 355 355 355 356 356 355 353 353 354 354 354 355 356 356 356 356 356 356 356 358 358 358 358 358 358 358 359 358 358 358 358 358 357 355 354 354 354 356 356 356 357 357 357 357 357 357 357 357 357 357 356 354 352 351 349 349 352 353 353 352 351 349 348 348 349 349 349 350 351 352 352 352 351 352 354 355 355 355 356 357 356 355 355
355 355 355 354 355 356 357 356 353 353 353 353 354 355 356 356 356 357 358 358 358 359 359 358 358 359 359 359 359 358 358 358 358 358 357 355 355 355 354 355 355 356 356 358 357 357 356 357 358 358 357 356 355 352 350 350 350 352 354 354 352 352 351 350 349 349 350 350 350 351 353 352 353 353 353 353 355 355 354 354 356 356 355 355 355
355 355 355 355 355 356 356 356 355 354 353 354 355 355 355 356 357 358 358 359 359 359 358 358 358 358 358 358 358 357 356 357 356 356 355 355 355 355 355 355 356 356 356 357 357 356 356 357 357 355 353 352 352 350 349 350 353 355 356 355 353 352 352 351 351 351 351 351 352 352 353 353 353 353 353 354 355 355 354 354 353 353 354 355 355
355 355 355 355 355 355 355 356 355 355 355 355 355 356 356 356 357 358 358 358 358 358 358 358 358 357 357 358 356 355 354 354 353 353 353 354 354 355 355 355 356 357 357 357 357 356 356 355 352 350 349 350 350 350 350 353 356 357 356 355 354 353 352 353 352 352 353 353 353 353 353 354 353 353 353 354 354 353 352 351 350 351 354 356 356
355 355 355 355 355 355 355 356 355 355 356 356 357 357 358 358 357 358 358 358 358 358 357 357 356 356 356 355 354 354 354 353 352 352 352 353 354 353 354 355 356 356 354 353 352 352 351 349 348 349 351 351 351 350 352 356 358 357 356 355 355 354 353 353 352 353 353 354 354 353 353 354 353 352 352 351 351 350 349 350 351 353 355 355 356
354 355 354 354 355 354 354 355 356 356 357 358 359 359 359 359 358 358 358 358 358 358 357 356 356 355 354 353 352 353 353 354 354 354 351 353 355 356 355 356 355 353 350 348 349 350 352 352 351 351 352 351 351 352 354 357 358 356 356 355 354 354 354 353 353 353 353 354 355 354 353 352 351 350 349 348 348 349 351 352 353 354 354 353 354
355 355 355 355 354 354 355 355 356 357 357 358 359 359 359 359 359 359 359 359 358 358 358 357 354 352 352 353 354 352 351 352 352 352 351 352 356 357 355 355 354 351 349 350 353 356 357 357 356 355 354 354 354 353 354 356 356 355 355 355 354 354 354 354 355 353 352 354 355 354 353 350 348 348 345 343 347 351 353 353 352 352 352 352 355
354 355 355 355 354 353 354 354 355 356 357 358 358 358 358 359 359 360 359 360 360 358 357 357 354 352 352 353 353 351 350 350 350 351 352 353 355 356 355 355 354 354 354 355 357 358 357 358 359 358 357 356 356 355 355 355 355 355 355 354 354 354 353 354 354 353 353 353 353 352 351 348 347 344 338 339 347 353 353 352 350 350 351 354 356
355 355 355 355 354 353 354 354 355 356 357 357 358 357 357 357 358 359 360 361 360 356 355 355 352 350 351 353 352 350 350 350 349 350 353 356 357 358 357 357 356 356 357 356 356 355 355 357 357 357 356 356 355 355 354 354 354 354 354 354 353 353 352 352 352 352 351 351 351 352 350 346 345 341 332 334 346 353 353 346 341 344 349 351 351
354 355 354 354 354 353 353 353 355 356 357 357 357 357 356 355 355 356 358 360 359 355 353 353 351 350 351 353 352 351 351 350 349 350 353 355 357 357 357 357 357 357 357 356 356 355 355 355 355 355 355 354 354 354 354 354 354 353 353 353 351 351 350 349 349 347 346 348 351 351 348 344 344 341 333 331 343 353 349 336 329 335 342 343 341
353 354 353 353 353 352 352 352 352 354 356 356 356 356 356 354 353 353 354 356 357 355 353 352 351 350 351 352 352 351 351 351 351 352 353 355 356 356 356 357 357 357 356 356 356 355 355 355 354 353 353 353 353 354 354 354 352 350 350 350 349 349 347 345 344 341 341 348 350 346 344 344 344 344 337 330 339 351 345 328 321 328 333 335 338
352 352 351 351 351 351 351 350 351 352 354 355 355 354 354 353 352 352 353 353 355 354 353 352 351 351 351 351 351 352 352 352 352 353 353 354 354 354 354 354 354 355 355 354 354 354 353 352 351 351 352 353 354 354 353 352 349 347 347 346 346 347 344 342 342 339 340 349 348 341 342 345 344 344 341 333 336 347 342 323 315 321 325 332 341
351 350 349 350 350 350 350 349 350 351 351 353 353 353 353 352 351 352 352 352 353 353 353 352 352 352 352 351 352 352 352 352 353 353 352 352 352 352 352 351 351 353 353 353 352 351 349 349 351 352 353 353 353 353 350 347 345 344 345 345 347 347 343 343 344 340 340 346 345 340 340 343 343 344 342 335 333 341 338 321 313 320 327 334 342
352 351 350 350 349 349 349 349 349 350 350 351 351 351 351 350 350 351 351 352 353 352 352 352 352 352 352 351 351 351 351 351 350 349 349 348 348 348 348 349 350 352 351 350 349 348 348 350 351 352 351 349 350 348 345 342 341 342 343 345 346 343 341 342 342 339 338 339 339 339 341 343 344 342 339 335 333 333 330 320 318 327 333 337 344
353 353 351 349 348 348 348 348 348 348 349 349 349 349 350 350 351 352 352 352 353 352 352 351 350 349 349 348 347 347 347 346 344 342 341 342 343 344 346 349 349 348 347 346 346 346 347 348 349 349 346 343 341 341 339 340 340 338 336 336 335 334 336 337 335 336 338 335 331 335 342 346 342 335 332 334 336 331 324 320 326 333 335 334 337
Wind_Speed
18 17 18 18 17 16 15 15 15 13 11 10 8 7 7 6 6 6 7 7 7 6 5 6 6 7 7 8 12 11 8 6 3 1 2 4 1 2 3 3 2 2 2 2 1 1 0 1 1 2 2 3 3 2 2 3 3 3 4 4 4 5 5 6 6 6 7 8 8 9 10 10 10 9 9 8 8 9 11 12 13 14 14 13 14
18 18 19 18 17 16 15 15 14 12 10 9 7 7 6 6 6 6 6 6 6 6 6 7 7 8 7 9 11 11 8 6 5 3 1 4 3 3 3 3 3 2 2 2 2 1 1 2 2 3 3 3 4 4 4 4 4 4 5 5 5 6 6 6 7 8 8 8 8 9 10 9 8 7 7 7 9 10 11 11 11 12 12 11 11
18 18 18 17 16 14 14 13 13 11 9 8 7 6 6 6 6 6 6 6 6 7 8 8 8 9 9 9 10 9 7 6 6 5 1 4 6 6 5 4 4 3 3 3 3 3 4 4 4 4 4 4 5 5 5 5 5 5 6 6 6 6 7 7 8 9 9 9 9 9 9 8 7 7 7 8 9 9 9 9 9 9 9 9 10
17 17 16 15 14 13 12 11 10 9 8 7 6 6 6 6 6 5 5 5 6 6 8 8 8 9 11 11 10 9 7 6 6 5 3 4 7 8 8 6 6 5 5 5 4 5 5 5 5 5 5 5 4 4 5 5 5 6 6 6 7 7 8 8 9 9 9 9 10 10 9 7 8 8 8 8 8 8 7 8 8 7 8 9 9
15 15 15 15 13 12 11 10 9 9 8 7 7 6 6 6 4 4 3 4 4 5 6 7 8 10 12 12 12 11 8 7 7 6 5 4 5 6 7 8 8 7 7 6 6 5 5 5 6 5 5 4 4 4 4 4 5 6 6 7 7 8 8 8 8 9 9 9 10 10 10 9 9 10 9 9 9 9 8 8 8 7 7 7 7
15 15 15 14 13 12 11 11 9 9 8 7 7 6 6 4 3 2 3 4 4 4 4 5 7 10 13 13 13 13 11 8 8 7 6 5 4 4 5 6 7 7 7 8 7 7 6 6 5 5 4 4 4 4 4 4 5 6 6 6 7 7 7 7 7 8 8 9 9 10 10 10 10 10 10 10 10 10 10 9 8 7 6 6 6
14 15 14 13 12 12 12 11 10 8 8 7 6 5 4 3 1 2 3 3 4 4 4 3 6 9 11 13 14 15 14 11 9 9 8 6 4 3 3 3 4 5 5 6 7 7 7 6 6 5 4 4 4 4 4 4 4 4 5 5 5 5 5 5 6 7 7 8 8 9 9 9 10 9 9 9 10 10 9 8 7 6 5 5 7
12 14 15 13 11 13 13 11 10 8 7 6 6 5 4 2 1 2 3 3 4 4 2 1 6 7 7 11 13 15 17 14 10 10 9 7 4 3 2 2 2 2 3 3 4 5 5 5 5 5 5 4 4 4 4 4 4 4 4 4 5 5 5 5 5 6 6 7 7 8 8 9 9 8 8 8 9 8 8 7 6 5 5 7 9
12 14 16 14 12 13 13 11 10 8 7 7 7 6 3 1 1 2 4 5 6 3 1 2 3 3 3 7 11 13 15 15 12 10 10 7 5 4 3 3 3 2 2 2 3 3 3 4 4 5 6 5 5 5 5 5 5 5 5 5 5 5 5 5 5 5 5 6 6 7 7 7 8 8 8 8 8 8 8 7 7 7 8 9 11
13 14 15 14 13 13 12 11 10 8 8 7 7 5 3 2 2 3 5 6 6 3 0 1 1 2 2 4 9 12 13 14 13 11 9 7 5 4 4 4 4 3 2 2 3 3 2 3 3 4 5 6 5 5 6 6 5 5 4 4 4 5 5 5 5 5 5 6 6 6 6 6 7 7 7 8 8 8 8 8 8 9 10 11 12
14 14 14 14 13 13 12 11 10 9 8 7 7 5 2 2 4 4 5 6 4 2 2 2 2 3 5 5 6 9 12 14 13 10 9 7 6 5 4 5 4 3 2 2 3 2 2 2 2 2 3 5 5 5 5 5 4 4 3 3 3 3 4 5 5 6 6 6 7 7 7 7 7 7 8 9 9 9 9 10 10 11 12 13 14
15 15 14 14 13 13 13 11 10 10 8 6 6 4 3 3 3 4 4 4 3 2 3 3 3 5 8 7 6 7 10 14 13 10 9 7 6 6 5 5 4 3 3 2 2 1 1 1 1 1 1 2 3 3 3 3 3 2 2 1 2 2 3 5 5 6 7 7 8 8 8 8 8 8 9 10 10 11 11 12 12 12 13 14 15
16 16 15 15 14 14 12 11 10 8 7 5 5 4 3 1 1 2 3 3 2 2 4 4 3 4 7 8 8 7 7 12 14 12 11 9 7 7 6 6 5 4 3 3 2 1 1 1 0 1 1 0 1 2 2 3 3 2 2 2 3 3 5 6 6 6 7 8 9 10 10 9 9 10 10 11 12 12 13 13 13 13 14 15 16
15 16 16 16 14 13 10 9 8 7 7 6 6 4 2 1 1 2 3 5 4 1 0 0 3 5 7 5 3 4 5 9 13 13 11 10 10 9 8 9 8 5 4 4 4 2 1 1 1 2 1 1 2 1 1 2 3 3 3 3 4 5 6 7 7 8 8 9 11 12 12 12 11 11 12 13 14 14 14 14 14 14 15 15 15
14 15 15 14 12 11 9 8 7 7 8 7 6 4 2 2 2 3 4 5 4 1 2 1 3 6 6 3 1 1 3 6 10 13 12 12 13 11 9 10 9 6 6 6 5 4 4 3 2 2 2 2 2 2 1 1 2 3 4 5 5 6 7 8 9 9 10 10 11 13 15 14 14 14 14 15 16 16 16 16 15 15 15 15 15
13 14 13 12 11 11 10 9 8 8 8 6 5 4 3 3 4 6 6 8 8 4 2 2 4 6 4 2 1 2 1 6 9 11 12 12 15 15 11 11 9 8 7 7 6 5 6 5 4 3 2 2 2 1 1 2 3 4 5 6 7 7 9 10 10 11 12 12 12 14 16 16 16 16 16 16 17 17 17 17 16 16 15 15 16
12 11 11 12 11 11 10 9 7 8 8 6 5 5 4 5 6 7 7 9 10 7 4 5 6 4 3 2 2 1 2 4 4 7 11 13 16 17 13 11 10 8 8 7 6 6 7 7 5 4 3 2 3 2 2 3 4 5 6 7 8 9 10 11 12 12 13 13 13 14 16 17 17 17 17 18 18 18 18 17 16 15 15 15 16
9 8 9 10 10 10 9 8 7 7 6 5 5 4 4 5 5 5 7 8 10 9 6 5 8 7 2 3 1 2 3 2 2 3 8 13 16 17 16 14 11 9 8 7 6 6 7 8 6 5 4 4 4 4 4 4 5 6 7 8 9 10 11 12 12 13 14 14 14 14 16 18 18 18 18 19 19 19 18 17 16 15 15 16 16
8 7 7 8 9 8 7 7 7 7 5 4 4 4 4 4 4 4 6 8 8 10 10 7 7 8 7 4 3 3 1 1 3 2 2 6 10 16 18 16 14 11 9 8 8 7 8 9 7 6 5 5 5 5 5 5 6 8 8 9 10 11 11 11 12 13 14 15 15 15 16 18 19 19 19 20 21 20 18 16 15 15 15 16 17
8 7 7 8 8 7 8 8 8 7 5 4 4 3 3 3 3 3 5 7 7 8 10 10 9 9 9 8 8 8 7 6 5 5 4 2 3 10 15 16 16 15 11 10 10 9 9 10 9 8 7 7 6 6 6 6 8 9 10 10 11 12 11 11 12 13 15 15 16 16 17 18 19 19 20 21 22 21 19 17 15 15 15 16 17
9 7 8 8 7 7 9 10 8 7 6 5 4 2 2 2 3 2 3 5 6 7 9 10 11 12 12 10 10 9 8 10 10 9 6 4 2 4 7 11 15 17 15 13 13 13 12 12 11 9 8 8 7 6 6 7 9 10 11 12 13 13 12 12 13 14 15 16 16 17 17 18 19 20 21 21 22 22 20 17 16 15 15 15 16
12 9 9 9 8 8 9 9 8 7 7 6 4 2 2 3 2 1 2 3 3 5 8 9 9 11 13 13 14 12 7 6 8 9 8 6 4 1 3 5 9 14 15 13 14 15 16 16 15 11 9 9 8 7 6 8 11 12 13 14 14 14 13 14 14 14 15 17 17 17 17 17 18 19 21 21 22 21 20 18 17 16 16 16 16
14 11 11 10 9 9 9 9 9 8 7 6 5 4 3 3 2 1 0 1 1 3 5 6 8 9 11 13 15 14 9 6 6 6 7 7 6 3 1 2 5 7 5 6 7 7 9 13 16 14 11 11 10 8 7 10 14 16 16 16 15 15 16 16 16 16 16 17 18 19 18 17 18 19 21 21 20 20 18 18 17 17 17 17 17
15 14 13 12 11 11 10 10 10 9 8 7 7 6 5 4 3 2 2 2 1 1 2 4 6 7 9 10 13 14 13 10 6 5 7 7 7 4 2 0 1 2 5 4 1 3 4 4 11 13 14 14 12 9 7 13 19 20 18 15 16 17 16 16 16 16 16 18 20 21 21 20 20 20 20 20 18 18 17 17 17 17 17 17 18
16 16 15 14 13 13 12 11 11 10 9 9 8 7 6 5 4 3 3 3 2 1 1 2 4 6 7 8 10 12 14 12 8 6 6 6 6 5 3 3 3 3 6 7 6 7 7 5 5 11 16 16 12 9 10 15 20 19 15 13 13 14 13 13 14 16 17 20 22 22 22 21 21 20 20 18 16 16 16 16 17 17 17 18 19
18 17 16 14 14 14 13 12 11 11 10 9 9 7 7 7 6 5 5 4 4 4 3 1 2 4 5 6 7 9 10 11 9 7 6 5 6 5 3 3 4 5 6 8 9 7 7 8 7 4 8 11 9 10 13 16 17 15 12 11 11 10 11 13 16 18 19 20 20 19 17 17 17 17 17 15 15 15 16 16 17 18 18 18 19
18 17 17 15 14 14 13 12 11 12 11 10 9 9 8 9 8 7 6 5 4 5 5 2 1 2 4 5 5 6 7 7 7 6 5 5 5 5 4 3 3 5 6 6 8 6 6 9 8 6 5 5 7 9 12 15 14 12 10 10 11 11 12 15 17 18 18 18 18 17 17 16 15 15 14 15 15 16 17 17 18 19 19 20 20
17 16 16 16 15 14 14 13 12 12 12 10 11 10 9 10 11 9 8 6 5 6 6 3 1 1 2 3 3 4 5 5 4 3 3 4 4 2 3 4 3 2 4 4 5 4 6 11 8 6 9 9 9 9 11 13 12 10 10 11 12 13 14 15 16 16 17 17 16 17 18 18 16 15 15 16 17 18 19 20 21 22 22 22 22
17 16 16 17 17 15 15 14 13 13 13 12 12 11 10 11 12 10 9 8 7 6 6 5 4 3 3 3 4 4 4 4 4 2 2 3 4 3 3 1 1 1 0 2 3 3 5 9 7 7 12 13 11 10 11 12 12 11 11 10 12 14 14 14 14 15 16 15 15 16 18 18 17 18 18 19 20 21 21 22 22 21 22 22 22
17 17 17 17 17 16 16 15 15 15 14 14 14 13 11 11 11 11 9 9 8 7 6 6 6 4 4 4 4 5 5 4 4 3 3 3 3 4 3 3 2 2 4 3 2 4 5 8 8 9 13 15 14 12 12 12 13 13 12 10 11 13 13 13 14 15 15 16 17 17 18 20 20 21 21 22 21 21 22 22 21 22 22 21 21
17 17 18 18 18 17 17 17 16 15 15 14 15 16 13 12 12 12 10 9 9 8 7 7 6 5 5 6 6 5 5 6 6 5 4 3 3 4 5 6 6 7 7 5 2 4 7 8 10 11 12 14 15 13 12 12 11 11 10 10 11 13 14 13 13 13 14 17 18 18 19 21 21 21 21 22 22 23 23 22 21 21 22 21 20
19 18 18 18 19 19 19 18 16 16 15 13 14 16 14 12 13 13 11 9 9 9 8 8 7 6 5 6 6 5 7 8 8 8 7 5 5 6 8 9 10 10 10 7 5 7 11 11 12 12 10 13 15 13 12 11 9 8 9 9 11 13 14 14 14 13 13 15 16 17 19 20 18 18 20 23 25 25 23 21 19 20 20 20 19
19 20 19 18 17 18 20 19 17 17 17 13 12 15 15 13 12 13 11 10 11 11 9 8 8 7 6 5 5 6 7 9 10 10 9 7 7 7 8 10 10 9 9 8 8 10 12 11 10 10 10 13 14 12 12 12 10 10 10 10 12 14 16 17 17 15 12 12 14 17 18 17 15 16 20 24 24 22 19 18 17 18 19 19 19
18 20 20 19 17 17 20 20 17 17 18 15 12 14 14 13 12 13 12 9 10 11 10 9 8 8 8 7 7 6 6 8 9 8 7 7 7 7 7 7 7 6 6 7 6 7 9 9 8 9 11 13 14 13 13 14 15 15 14 14 16 17 17 16 14 12 10 11 14 16 17 16 16 19 23 24 21 18 18 17 17 18 19 20 20
19 19 20 20 20 20 20 20 19 18 18 16 15 15 15 13 12 13 13 11 9 11 11 10 9 9 9 9 8 7 7 7 8 8 9 9 8 8 7 6 5 5 4 4 4 4 6 7 9 11 12 13 14 14 14 16 17 16 16 16 16 15 13 12 12 13 13 14 15 17 18 18 20 23 24 21 17 16 17 18 19 20 20 20 20
20 20 19 20 21 20 19 20 20 20 20 18 17 16 16 15 12 11 13 13 12 11 12 11 9 8 9 8 8 7 8 9 9 9 9 8 8 9 9 6 4 4 2 3 4 4 5 7 10 12 12 13 14 15 16 17 17 15 13 12 13 13 12 13 16 18 17 17 18 20 21 21 23 24 22 19 16 16 17 19 20 20 21 21 20
22 21 20 20 21 20 18 19 20 21 21 20 19 18 17 16 15 12 11 12 12 11 11 11 10 9 9 10 9 8 9 10 10 10 9 8 7 9 8 6 4 4 3 3 4 4 6 8 10 11 12 12 14 14 15 17 17 15 11 10 11 15 17 18 19 19 19 21 23 24 23 23 23 22 20 18 17 15 17 19 18 19 21 22 20
23 23 21 21 21 21 20 18 18 20 20 19 20 20 17 15 15 14 12 12 12 12 11 11 10 10 10 11 10 10 10 12 12 11 10 9 8 8 8 7 6 5 5 4 5 5 7 8 10 12 13 13 14 14 14 16 16 12 11 13 15 18 21 20 20 20 22 24 25 24 24 24 23 22 20 18 16 15 17 18 18 19 20 20 18
21 23 23 22 22 22 21 20 19 19 18 17 18 19 18 17 15 15 15 14 13 12 11 11 11 11 11 11 11 10 10 11 12 12 12 11 9 8 8 8 7 7 6 5 5 6 7 8 10 12 13 13 14 14 15 15 13 10 13 17 19 20 21 20 21 23 24 24 24 22 22 22 22 22 20 17 15 16 17 18 19 19 18 17 18
20 21 23 23 23 22 21 22 21 19 17 17 17 17 17 17 16 15 15 14 13 13 12 12 12 12 13 13 12 11 10 11 12 12 12 12 10 8 8 9 9 8 7 6 6 7 8 9 10 12 13 13 14 15 16 15 13 12 13 15 17 20 21 20 21 23 22 22 22 22 23 23 23 23 21 19 18 18 19 19 18 17 15 15 17
21 21 21 22 23 22 20 21 22 21 19 18 18 17 16 16 17 15 14 13 13 12 12 12 12 11 11 11 10 9 9 10 11 10 10 10 11 11 10 10 10 8 7 7 7 7 8 10 11 12 12 14 15 15 15 13 11 11 13 15 17 19 20 22 22 20 19 19 20 21 22 23 23 22 22 21 20 21 20 18 17 16 15 15 16
23 22 21 21 22 21 20 22 23 21 19 17 17 17 17 16 16 16 14 13 12 11 11 11 10 10 10 9 9 8 8 9 10 10 10 10 11 12 11 10 10 9 8 7 6 6 8 9 11 11 12 14 15 14 13 12 10 11 14 15 17 18 20 21 20 18 18 17 19 21 21 21 21 22 21 21 21 21 19 18 17 17 18 17 15
25 24 23 22 22 21 20 21 22 21 20 19 18 18 18 17 16 16 15 14 12 10 10 10 10 9 9 8 8 8 9 10 11 11 11 10 11 12 11 11 10 9 8 7 5 6 7 9 10 10 11 14 14 13 12 12 11 12 13 14 15 16 17 16 15 17 17 16 17 20 19 19 21 21 21 21 21 19 17 18 19 20 20 18 15
27 26 24 23 23 22 21 21 22 23 22 21 20 19 19 18 17 17 16 14 12 11 12 12 10 8 7 7 8 9 8 9 9 9 9 9 10 11 11 10 9 8 7 6 6 6 7 8 9 9 9 11 11 11 11 11 12 12 13 12 12 12 12 12 13 16 16 16 17 18 17 19 21 21 21 22 19 16 16 19 22 21 21 19 17
28 27 25 23 23 23 22 22 23 23 23 23 21 19 19 18 18 17 16 14 13 12 12 12 9 7 6 7 10 11 9 8 8 7 7 6 7 8 7 7 6 5 5 5 5 5 5 5 5 4 4 6 8 8 8 10 12 12 12 11 10 9 9 11 12 14 15 15 15 15 15 18 21 21 22 21 16 13 15 20 23 22 21 21 20
26 26 25 24 23 22 22 22 22 23 23 23 21 20 19 18 17 17 16 15 14 12 11 10 9 7 7 8 10 11 10 9 8 7 7 7 7 6 5 5 4 3 3 2 3 3 2 1 2 2 3 4 6 7 8 9 9 9 9 8 7 7 8 8 9 11 13 13 14 14 14 18 20 21 23 21 15 12 15 21 23 21 21 22 22
25 25 24 22 22 22 22 22 22 22 22 22 21 21 20 19 17 16 15 15 15 14 12 11 10 9 9 10 11 10 10 9 8 7 7 6 6 6 5 5 4 4 4 4 3 2 2 2 3 4 5 5 6 6 6 6 6 6 6 5 6 6 7 8 9 12 14 13 14 16 15 17 20 21 22 22 16 11 15 21 22 21 21 23 24
22 21 20 19 20 21 22 22 22 21 22 22 21 21 20 19 18 15 14 15 17 16 14 12 11 10 11 11 10 10 9 9 8 7 6 5 5 4 5 5 5 5 5 4 3 2 3 4 4 5 5 5 4 4 3 3 5 5 4 5 7 8 10 11 12 16 16 11 15 20 18 16 19 21 21 22 17 11 15 23 23 21 22 24 23
19 20 19 18 17 18 19 19 20 20 20 20 20 19 19 18 16 15 16 17 17 16 15 13 13 12 11 11 10 10 9 9 8 7 6 5 4 4 4 5 6 7 6 4 3 4 4 3 2 2 1 2 2 1 3 5 7 6 4 6 9 10 12 12 12 15 13 10 14 22 19 15 18 20 20 21 17 12 17 25 26 23 23 23 23
17 17 18 17 17 17 17 18 18 17 17 17 17 17 16 15 14 16 18 19 18 17 16 15 14 13 13 12 10 9 8 7 6 5 5 5 5 6 6 7 8 7 5 4 3 3 2 2 3 4 5 5 4 5 7 8 9 7 6 8 9 10 11 10 10 12 11 12 18 20 15 13 16 19 19 19 16 14 20 25 26 25 25 24 23
17 17 18 18 17 17 17 17 16 16 15 15 15 15 15 14 15 18 20 20 20 19 18 16 14 13 12 10 9 7 6 5 4 4 4 5 6 6 7 8 8 6 3 3 3 4 5 7 8 9 10 10 9 8 8 9 9 10 10 10 9 10 10 11 12 11 7 12 20 18 11 12 16 17 18 15 10 13 21 25 24 25 26 25 25
Wind_Direction
163 162 159 157 158 157 157 160 161 161 163 166 171 173 177 181 185 190 193 197 203 208 221 226 228 227 215 206 205 205 220 241 235 208 38 41 91 154 152 155 164 162 162 168 159 163 153 121 124 99 87 77 70 64 52 34 27 15 7 1 347 344 339 335 333 330 327 324 329 330 328 329 330 329 330 332 330 327 321 319 318 318 322 323 320
168 165 162 161 162 163 164 164 164 165 169 173 176 182 187 191 196 198 202 212 218 232 250 252 250 238 211 193 200 209 223 234 230 219 26 39 64 114 135 141 144 139 130 122 107 101 91 91 92 84 73 63 54 44 37 27 18 11 5 358 352 348 341 337 335 332 329 329 334 333 330 333 335 333 331 329 323 317 313 312 314 317 321 323 325
170 166 164 164 164 166 167 167 168 171 175 181 183 189 193 193 197 200 211 228 241 253 262 260 248 222 195 186 196 204 214 225 223 219 205 58 74 87 95 107 115 110 98 93 95 97 97 97 90 82 73 59 49 38 31 23 16 10 2 356 350 343 338 336 334 333 331 332 335 333 333 337 336 331 325 320 314 312 316 321 327 330 334 341 346
172 168 166 165 165 167 170 173 175 177 180 184 187 191 193 193 199 212 230 256 271 274 270 258 237 209 190 191 202 204 207 215 214 210 178 94 86 81 73 77 86 88 89 87 93 98 99 96 88 82 75 64 52 39 29 19 10 2 354 348 342 337 335 334 334 336 336 338 341 341 342 343 339 336 333 330 329 336 347 355 356 353 354 358 359
172 169 167 166 169 171 175 181 180 181 183 186 189 191 193 197 211 239 271 286 290 292 270 246 233 221 205 199 202 203 207 212 208 200 178 127 95 80 66 67 75 81 85 85 87 92 95 95 90 83 74 64 48 31 15 2 353 348 345 340 337 335 334 335 338 342 344 349 351 353 357 359 356 353 353 355 359 5 10 14 12 7 8 10 6
173 172 170 170 174 179 181 185 185 187 192 190 185 187 192 197 216 259 289 296 306 316 284 251 236 229 219 211 208 207 209 217 213 203 186 150 112 88 70 70 77 83 87 84 83 84 86 87 83 75 63 49 33 17 359 347 341 340 341 340 341 339 339 344 350 355 358 1 2 5 9 10 7 4 4 6 8 10 12 18 19 14 15 12 357
177 178 176 175 177 182 182 183 184 187 191 184 173 175 182 186 214 279 293 291 302 300 285 263 213 210 221 222 220 215 212 216 218 211 199 174 147 120 80 73 79 83 86 83 80 79 79 78 72 63 52 42 30 15 359 351 347 350 355 358 359 358 360 6 10 14 13 12 12 14 17 16 10 6 4 5 5 7 10 16 19 17 11 354 342
179 182 182 179 175 179 181 179 177 178 182 175 160 157 159 169 268 315 307 287 293 285 264 197 184 192 223 228 223 218 214 215 218 212 203 189 178 170 116 92 95 82 79 79 73 71 71 69 64 55 47 41 36 34 27 25 26 31 38 38 37 33 31 34 33 31 26 22 20 19 21 20 14 8 2 1 2 3 5 9 10 5 349 336 331
179 179 181 180 175 178 180 173 171 172 171 163 149 146 150 183 238 303 305 294 295 292 155 131 178 189 206 214 214 214 214 214 210 203 198 196 197 189 160 130 123 110 96 80 67 60 59 59 57 47 40 40 46 51 51 52 56 62 72 75 72 66 56 48 41 35 30 24 19 16 16 18 16 11 3 358 355 355 355 355 351 343 332 326 324
179 177 178 178 176 177 175 167 164 158 152 149 147 151 163 204 249 275 290 294 289 290 17 58 308 225 167 167 192 200 203 201 197 194 190 193 192 178 160 146 133 125 125 104 95 78 60 59 55 45 36 37 47 62 65 66 74 82 91 93 86 78 63 48 36 26 22 16 9 2 358 360 3 2 358 350 344 341 339 338 335 331 326 323 322
176 178 179 177 174 170 165 160 157 153 150 151 151 156 185 237 277 280 280 284 275 283 324 341 323 255 203 166 169 184 189 186 187 192 191 191 184 177 169 155 141 135 143 134 126 113 87 67 47 51 30 29 44 67 78 79 88 94 98 94 78 66 50 37 30 22 16 9 2 352 343 339 341 346 347 341 334 329 326 325 324 323 322 320 321
175 176 176 174 169 163 158 156 157 158 159 156 156 174 212 238 285 301 291 280 264 281 304 297 292 244 213 202 182 176 185 189 194 197 198 205 196 192 198 184 173 160 157 155 149 134 106 88 35 54 19 14 34 52 69 75 80 81 80 60 22 16 15 15 17 17 15 10 2 351 340 333 333 337 340 337 332 326 322 320 319 318 318 317 317
175 173 170 167 164 162 159 159 162 162 161 164 174 187 194 222 319 336 341 324 298 296 299 288 260 202 188 189 186 178 180 193 204 206 206 220 221 214 220 218 215 200 184 187 185 181 95 121 115 336 336 37 49 35 45 48 52 42 29 9 347 347 354 357 357 359 3 5 2 353 341 332 329 330 334 334 330 326 323 322 320 318 317 314 313
170 168 167 166 163 159 157 162 166 169 173 178 180 172 142 86 4 16 12 350 334 324 151 235 185 168 157 153 182 206 202 200 207 212 218 234 233 224 230 231 229 221 212 214 213 221 200 173 233 292 272 155 136 134 45 31 37 24 15 4 346 343 347 350 347 345 346 350 355 352 344 333 326 326 328 329 327 324 322 321 321 321 319 317 314
167 167 167 165 160 157 161 167 171 179 185 180 173 162 128 99 65 46 34 13 2 94 113 81 169 154 137 133 268 247 248 242 229 225 233 247 238 227 233 232 222 217 220 226 229 230 219 218 249 262 225 163 143 162 202 339 360 352 350 346 339 338 339 340 339 338 336 336 342 346 344 336 327 324 324 326 324 321 319 318 319 320 320 319 317
165 167 167 163 163 169 173 175 176 182 184 174 164 154 118 93 75 52 36 26 25 44 26 7 167 165 136 105 92 91 288 268 252 240 242 249 237 226 229 226 211 204 214 225 232 228 219 226 244 238 212 178 178 194 223 276 316 323 329 328 328 330 331 331 331 332 332 330 334 340 342 338 331 327 325 325 324 320 317 316 317 319 321 322 319
164 164 167 171 176 182 184 186 186 180 175 164 153 143 112 95 81 57 36 25 25 37 50 62 97 146 186 162 93 79 243 248 251 245 236 233 230 224 221 216 208 205 209 219 228 224 218 224 233 223 215 216 218 238 262 281 299 304 316 323 324 324 323 324 324 327 329 327 330 336 340 338 335 332 331 331 328 324 320 318 318 320 322 325 324
170 165 172 179 183 187 190 193 188 177 173 165 155 142 116 102 88 59 40 31 26 39 60 78 77 71 103 173 186 240 242 209 167 228 233 228 229 227 220 211 210 214 212 211 218 220 219 223 230 226 226 230 232 255 277 289 295 299 312 322 323 321 320 322 322 323 325 325 327 332 337 338 337 336 336 338 336 331 326 323 322 322 323 326 328
181 178 182 181 181 186 190 190 180 172 172 170 165 148 125 116 103 64 41 37 32 40 47 54 65 58 59 74 59 46 47 151 156 162 207 225 225 222 220 214 212 222 227 220 218 225 230 229 231 233 233 235 241 257 274 290 298 301 311 322 325 322 321 324 324 323 324 324 324 326 331 334 336 337 339 341 342 339 333 329 326 324 324 326 328
193 190 191 188 185 186 183 179 175 173 174 170 168 149 121 124 113 71 46 46 40 41 46 49 48 39 41 54 52 52 63 79 101 122 134 148 197 209 219 223 221 227 239 237 229 235 244 241 236 235 237 240 245 259 279 299 308 311 314 319 323 324 324 325 325 327 328 327 324 323 325 328 332 336 339 341 343 343 338 333 330 326 325 325 326
208 204 200 198 195 189 179 175 176 177 177 172 165 146 111 130 130 96 68 60 46 43 46 46 42 34 32 36 35 39 58 72 77 86 102 121 151 195 214 222 228 233 239 243 243 246 250 249 244 240 243 247 253 265 286 307 315 318 319 320 322 323 325 327 327 330 333 332 328 324 323 324 328 333 338 340 343 344 341 337 335 332 330 329 329
212 212 206 201 197 191 182 180 183 178 175 177 174 168 152 144 148 140 87 62 54 52 45 41 41 35 33 33 29 25 30 43 59 72 81 103 118 112 150 185 231 238 238 247 253 253 253 252 248 244 244 252 259 267 287 318 326 325 326 326 325 323 322 324 326 328 332 336 336 332 328 325 325 331 337 340 342 343 342 341 342 341 340 338 336
209 212 207 202 197 193 189 187 188 183 181 186 186 184 178 166 170 188 182 21 61 56 43 43 41 34 32 34 31 30 30 12 20 61 73 90 97 69 108 197 242 233 237 252 250 259 263 253 248 244 246 255 261 264 291 333 341 336 333 330 328 327 324 321 320 322 327 333 337 337 333 329 327 331 335 337 340 342 344 346 348 348 349 347 345
207 211 208 203 198 195 196 194 192 190 187 188 186 182 182 190 196 200 250 264 230 53 44 43 36 30 29 30 30 36 41 29 21 58 69 88 109 113 120 23 291 337 6 6 352 356 353 276 249 242 244 254 262 267 304 342 346 340 337 332 329 329 326 322 318 320 325 330 335 336 334 332 329 330 332 333 336 341 345 349 352 353 354 354 353
206 210 208 205 201 199 201 199 197 195 191 191 190 185 185 196 199 203 230 240 221 199 139 60 37 28 23 24 30 40 45 38 38 70 74 82 94 89 82 60 41 6 1 11 16 23 33 14 278 251 249 252 259 281 316 339 344 345 347 342 337 334 331 329 328 331 334 335 337 337 334 332 329 329 329 327 330 337 342 346 349 352 354 356 356
207 209 210 209 206 203 204 204 202 201 201 198 197 201 209 213 209 207 212 216 213 203 184 130 52 32 16 11 21 38 48 41 44 63 72 72 69 60 44 27 32 25 10 1 4 23 37 23 13 315 269 259 270 300 320 334 343 349 353 352 351 351 344 340 342 346 348 348 349 349 346 342 337 333 329 325 326 331 337 341 343 345 348 350 352
211 213 213 212 210 207 208 209 207 207 209 206 204 207 215 219 216 210 204 208 221 212 196 185 42 17 10 7 8 23 35 33 38 47 45 47 54 57 52 44 27 8 6 359 359 10 0 355 13 28 1 320 317 328 334 340 345 348 352 357 359 355 347 344 348 353 354 359 6 9 8 4 357 349 340 333 331 330 331 334 336 337 338 341 343
215 217 216 214 213 211 213 215 216 216 215 213 212 207 209 215 215 213 210 216 232 219 207 216 243 269 327 342 347 5 13 14 26 36 17 12 16 23 40 65 83 3 354 351 348 354 346 344 348 360 2 354 341 341 344 345 349 354 357 360 355 348 342 340 347 350 349 357 8 8 9 11 7 360 352 346 343 338 333 331 331 331 331 332 333
217 219 218 216 215 214 215 216 217 217 215 215 215 211 212 216 216 216 216 221 229 220 216 230 229 233 281 305 305 313 321 328 333 326 309 340 355 336 305 348 91 151 185 328 308 279 322 339 339 344 354 353 343 339 341 342 343 345 347 349 347 342 337 337 343 346 347 356 3 3 6 10 7 1 356 353 351 348 344 341 338 336 335 333 332
219 220 218 215 215 216 217 216 215 216 215 216 217 215 218 220 220 219 219 224 230 227 231 242 236 244 286 308 308 303 302 308 317 320 309 305 329 333 307 299 300 243 211 222 275 275 301 328 335 336 343 348 344 337 334 333 331 331 331 332 336 337 335 335 339 345 355 5 6 6 7 5 2 1 359 359 359 356 353 350 347 345 343 340 336
221 220 218 217 219 221 218 215 215 219 224 227 222 217 218 223 222 219 219 227 231 229 238 247 243 250 286 307 306 297 294 297 300 304 307 294 284 297 298 297 293 275 250 226 229 285 292 311 325 327 332 340 340 337 333 331 330 330 328 323 326 330 333 337 341 347 359 8 9 6 359 355 356 360 0 359 356 351 347 347 346 344 342 340 338
221 219 221 220 221 223 219 214 215 221 228 231 223 216 217 226 226 220 221 230 230 228 239 250 247 249 280 300 293 282 286 292 292 289 290 285 272 284 306 309 293 276 266 248 234 272 290 302 312 317 328 333 335 340 340 336 337 338 330 323 326 332 339 346 350 348 346 353 0 357 349 349 354 356 353 348 343 339 341 345 346 344 344 345 345
221 218 220 219 218 218 215 213 217 223 227 226 217 214 218 226 228 224 226 237 237 235 243 254 248 249 270 282 273 272 282 290 289 285 285 280 276 293 320 322 305 282 273 268 254 268 292 305 306 311 328 332 332 341 342 335 335 335 331 330 335 339 342 344 347 348 342 344 349 346 345 350 353 349 345 342 340 341 345 349 351 352 355 356 356
220 219 218 218 217 213 210 214 220 224 226 223 216 216 220 226 229 225 228 241 244 237 241 251 248 245 257 267 263 258 272 288 287 281 285 285 283 299 316 324 325 310 281 276 266 271 294 307 313 322 332 333 332 337 340 336 335 333 332 336 340 342 344 347 354 1 354 343 341 341 346 352 350 344 341 343 347 350 354 356 357 356 356 356 357
220 220 219 220 221 218 217 220 223 223 224 224 222 221 224 229 230 227 230 240 244 239 240 251 255 250 254 262 261 254 259 277 281 282 295 294 280 283 294 302 321 318 286 272 277 284 295 306 323 331 334 335 331 333 339 341 342 340 336 339 344 350 1 6 4 0 350 343 343 346 350 350 345 343 343 347 354 357 359 2 359 356 356 356 357
221 220 221 220 219 221 225 225 224 222 222 223 222 220 224 230 231 231 235 238 240 245 247 251 255 253 254 258 258 256 258 266 272 279 291 289 270 270 281 283 291 301 284 268 288 305 308 313 324 329 333 335 331 332 341 348 352 354 353 354 356 0 5 360 351 348 347 346 347 348 348 345 343 345 349 354 0 3 5 5 3 3 4 1 359
220 218 220 220 218 220 226 226 222 220 222 226 225 221 225 229 229 235 241 238 238 244 246 244 246 251 257 262 263 261 261 262 266 272 276 276 272 272 273 273 277 285 281 279 297 316 321 321 323 325 329 332 329 330 342 350 353 355 359 360 356 352 348 344 342 345 346 344 344 346 346 344 345 350 355 360 4 6 5 4 5 7 5 2 2
219 217 218 219 219 221 224 225 224 224 228 230 226 223 225 225 225 232 240 240 240 243 242 239 242 250 257 262 266 266 264 262 262 264 265 266 273 274 268 268 273 277 282 289 298 308 314 316 318 320 323 327 328 329 339 350 352 354 354 346 342 343 343 341 341 345 345 343 343 345 345 345 348 353 356 360 4 3 360 359 359 359 1 4 5
218 217 219 219 218 221 223 224 227 229 228 224 221 223 227 227 228 233 236 237 237 239 243 242 243 249 255 259 266 270 268 265 264 265 263 259 264 270 265 263 267 271 275 279 285 294 302 306 309 314 317 320 324 328 336 345 348 352 355 347 340 339 340 341 342 344 343 342 342 344 346 347 348 351 355 358 359 356 354 353 352 353 360 5 5
217 217 220 220 218 219 222 222 224 226 225 224 226 227 228 228 231 234 233 232 234 237 242 246 248 251 253 257 263 266 269 270 267 264 257 251 253 257 254 253 256 260 262 265 272 282 291 298 302 307 311 312 318 326 334 341 344 345 348 346 339 336 337 338 340 342 344 344 342 342 346 347 347 349 353 354 353 350 348 349 352 357 3 6 3
219 220 219 217 216 218 220 220 221 224 227 230 232 229 226 226 230 233 232 231 235 240 245 249 251 252 253 258 260 261 268 272 269 262 252 249 252 254 254 250 247 250 258 262 270 280 288 295 299 305 308 308 313 323 331 337 340 335 335 335 334 334 334 334 336 343 347 345 341 341 345 349 349 349 351 352 351 350 351 355 2 6 8 7 5
219 220 218 214 214 216 217 217 219 221 223 225 227 226 227 229 231 233 234 234 238 244 249 249 250 253 258 260 255 252 256 256 254 254 252 253 256 258 256 245 240 252 264 266 275 287 293 297 301 306 307 305 310 321 327 327 324 324 329 333 333 334 335 334 335 343 349 347 342 340 345 353 354 354 358 360 357 357 2 11 16 14 8 4 5
219 219 219 217 216 215 214 215 218 220 221 221 222 224 227 229 230 232 234 239 244 249 252 252 254 260 267 264 251 245 246 245 244 246 246 246 247 248 246 241 247 262 266 264 275 287 292 296 298 301 301 301 307 314 315 313 314 320 328 332 333 337 340 338 332 337 347 351 343 339 348 1 1 1 7 7 3 7 17 22 19 14 10 8 9
219 221 222 222 220 216 213 213 216 219 222 222 222 225 227 228 230 232 234 238 239 243 254 261 260 262 268 260 236 227 231 237 241 242 240 237 236 235 235 240 251 259 255 256 265 270 276 281 284 290 293 297 306 310 307 305 310 318 325 329 336 341 342 338 326 328 342 350 344 342 353 5 5 5 9 9 9 17 25 19 12 10 12 15 15
218 220 221 221 220 217 213 213 215 218 220 222 224 226 227 228 232 232 230 230 228 231 247 256 253 254 257 235 218 216 221 228 231 233 230 221 219 221 224 231 236 237 242 251 258 262 269 272 277 289 296 304 313 314 308 307 311 321 326 332 340 341 339 337 328 329 343 349 347 347 354 4 7 6 7 9 14 24 22 11 7 9 12 15 13
216 217 218 220 220 218 217 216 216 217 217 220 224 227 228 230 233 231 227 228 228 224 228 235 237 242 237 219 214 215 218 224 227 226 223 218 215 212 208 202 194 195 210 212 217 236 241 239 274 309 308 311 312 307 307 311 317 329 334 338 347 346 345 344 335 342 356 2 3 360 353 360 6 4 3 7 14 23 18 8 8 12 14 14 12
215 216 217 220 219 218 218 217 215 214 216 219 222 226 230 233 234 232 227 226 224 219 219 226 231 231 221 214 217 218 217 221 225 224 223 221 218 210 196 179 164 168 176 170 175 196 216 253 288 294 289 289 288 291 308 322 339 356 359 358 4 4 2 358 353 1 12 18 17 8 353 355 4 1 359 4 11 18 13 8 10 15 16 16 17
203 205 206 207 208 209 210 210 211 211 214 219 221 223 229 234 234 229 218 211 211 211 215 221 221 217 214 213 216 217 217 218 218 219 223 222 222 216 193 175 176 189 193 193 205 247 280 289 284 274 271 274 275 291 325 355 8 15 19 20 22 19 15 12 6 8 18 28 18 5 351 349 1 1 356 1 9 13 4 4 9 15 17 20 24
189 191 191 191 193 197 199 201 205 208 211 215 219 222 227 231 229 219 207 203 204 204 206 209 209 206 206 209 212 213 213 214 214 218 224 228 237 240 221 202 203 207 210 217 243 273 286 280 251 242 301 302 289 340 41 37 19 7 9 24 27 22 21 19 4 1 16 32 10 356 348 347 0 4 357 357 7 8 354 357 7 16 18 22 29
189 189 190 189 188 190 194 196 199 204 207 211 216 220 223 223 216 212 209 205 200 198 197 196 198 199 198 199 204 206 206 209 213 218 225 237 245 243 232 216 206 202 208 222 236 237 209 152 134 101 74 72 84 81 68 47 29 23 33 42 37 27 26 23 3 355 14 27 10 356 351 358 8 9 2 356 359 359 353 357 9 18 20 24 30
195 191 190 190 186 187 192 194 196 200 204 208 214 218 218 213 206 208 210 204 195 193 191 188 187 190 191 190 191 193 194 197 204 211 217 224 227 223 216 207 195 181 169 159 145 133 116 109 112 107 95 90 89 83 71 55 46 45 47 47 42 32 30 28 16 8 10 15 12 9 12 16 15 14 11 4 349 344 353 4 15 20 22 26 30